• In Belarus
  • List of Countries
  • For 7 days
  • Water Temperature
  • Satellite Maps
  • Weather Map
  • Weather Widgets
  • user-avatar
    Login

    Hourly Weather Munsingen

    Today, 22 October, Sunday

    Time Temperature Precipitation Wind Pressure Humidity
    00:00 +10°C° 0.6 mm 3 mps 715 mmHg 93%
    01:00 +10°C° 0 mm 2 mps 715 mmHg 93%
    02:00 +10°C° 0.3 mm 2 mps 715 mmHg 92%
    03:00 +9°C° 0.3 mm 2 mps 715 mmHg 92%
    04:00 +9°C° 0.3 mm 3 mps 715 mmHg 92%
    05:00 +9°C° 0.2 mm 3 mps 715 mmHg 92%
    06:00 +8°C° 0.2 mm 3 mps 715 mmHg 92%
    07:00 +8°C° 0 mm 2 mps 714 mmHg 92%
    08:00 +8°C° 0.3 mm 3 mps 714 mmHg 88%
    09:00 +9°C° 0.3 mm 3 mps 714 mmHg 84%
    10:00 +8°C° 0.3 mm 4 mps 714 mmHg 81%
    11:00 +8°C° 0.4 mm 4 mps 714 mmHg 79%
    12:00 +8°C° 0.4 mm 4 mps 714 mmHg 78%
    13:00 +8°C° 0 mm 4 mps 714 mmHg 77%
    14:00 +8°C° 0.4 mm 4 mps 714 mmHg 79%
    15:00 +7°C° 0.4 mm 4 mps 714 mmHg 81%
    16:00 +7°C° 0.4 mm 4 mps 714 mmHg 83%
    17:00 +7°C° 0.5 mm 3 mps 714 mmHg 86%
    18:00 +7°C° 0.5 mm 3 mps 715 mmHg 89%
    19:00 +6°C° 0.5 mm 2 mps 715 mmHg 92%
    20:00 +6°C° 0.8 mm 2 mps 715 mmHg 92%
    21:00 +6°C° 0.8 mm 2 mps 716 mmHg 93%
    22:00 +6°C° 0.8 mm 2 mps 716 mmHg 93%
    23:00 +6°C° 0.7 mm 2 mps 716 mmHg 94%

    Tomorrow, 23 October, Monday

    Time Temperature Precipitation Wind Pressure Humidity
    00:00 +6°C° 0.7 mm 2 mps 716 mmHg 94%
    01:00 +6°C° 0.7 mm 2 mps 716 mmHg 94%
    02:00 +6°C° 0.6 mm 2 mps 716 mmHg 94%
    03:00 +5°C° 0.6 mm 2 mps 716 mmHg 94%
    04:00 +5°C° 0.6 mm 2 mps 716 mmHg 93%
    05:00 +5°C° 0.7 mm 2 mps 716 mmHg 93%
    06:00 +5°C° 0.7 mm 2 mps 716 mmHg 93%
    07:00 +5°C° 0.7 mm 2 mps 717 mmHg 93%
    08:00 +6°C° 0.6 mm 2 mps 717 mmHg 93%
    09:00 +7°C° 0.6 mm 2 mps 717 mmHg 92%
    10:00 +7°C° 0.6 mm 2 mps 717 mmHg 91%
    11:00 +8°C° 0.5 mm 2 mps 717 mmHg 89%
    12:00 +8°C° 0.5 mm 2 mps 717 mmHg 88%
    13:00 +9°C° 0.5 mm 2 mps 718 mmHg 86%
    14:00 +9°C° 0.3 mm 2 mps 718 mmHg 87%
    15:00 +9°C° 0.3 mm 2 mps 718 mmHg 88%
    16:00 +9°C° 0.3 mm 2 mps 718 mmHg 89%
    17:00 +8°C° 0.2 mm 2 mps 718 mmHg 90%
    18:00 +8°C° 0.2 mm 2 mps 718 mmHg 92%
    19:00 +8°C° 0.2 mm 1 mps 719 mmHg 93%
    20:00 +8°C° 0.5 mm 1 mps 719 mmHg 93%
    21:00 +8°C° 0.5 mm 1 mps 719 mmHg 93%
    22:00 +8°C° 0.5 mm 1 mps 720 mmHg 93%
    23:00 +8°C° 0.1 mm 1 mps 719 mmHg 92%

    Day after tomorrow, 24 October, Tuesday

    Time Temperature Precipitation Wind Pressure Humidity
    00:00 +8°C° 0.1 mm 1 mps 719 mmHg 91%
    01:00 +7°C° 0.1 mm 2 mps 719 mmHg 91%
    02:00 +8°C° 0.1 mm 1 mps 719 mmHg 90%
    03:00 +8°C° 0.1 mm 1 mps 719 mmHg 90%
    04:00 +8°C° 0.1 mm 1 mps 719 mmHg 90%
    05:00 +8°C° 0 mm 1 mps 719 mmHg 90%
    06:00 +8°C° 0 mm 1 mps 719 mmHg 90%
    07:00 +8°C° 0 mm 1 mps 719 mmHg 90%
    08:00 +9°C° 0 mm 1 mps 719 mmHg 88%
    09:00 +11°C° 0 mm 1 mps 719 mmHg 85%
    10:00 +13°C° 0 mm 1 mps 719 mmHg 83%
    11:00 +14°C° 0 mm 1 mps 720 mmHg 79%
    12:00 +15°C° 0 mm 1 mps 720 mmHg 76%
    13:00 +18°C° 0 mm 1 mps 720 mmHg 73%
    14:00 +16°C° 0 mm 1 mps 719 mmHg 75%
    15:00 +16°C° 0 mm 1 mps 719 mmHg 78%
    16:00 +15°C° 0 mm 1 mps 719 mmHg 80%
    17:00 +14°C° 0 mm 1 mps 719 mmHg 83%
    18:00 +12°C° 0 mm 1 mps 719 mmHg 85%
    19:00 +11°C° 0 mm 1 mps 719 mmHg 88%
    20:00 +10°C° 0 mm 1 mps 720 mmHg 87%
    21:00 +10°C° 0 mm 1 mps 720 mmHg 85%
    22:00 +10°C° 0 mm 1 mps 720 mmHg 84%
    23:00 +10°C° 0 mm 1 mps 720 mmHg 84%

    25 October, Wednesday

    Time Temperature Precipitation Wind Pressure Humidity
    00:00 +10°C° 0 mm 1 mps 719 mmHg 84%
    01:00 +10°C° 0 mm 1 mps 719 mmHg 84%
    02:00 +10°C° 0 mm 1 mps 719 mmHg 84%
    03:00 +10°C° 0 mm 1 mps 719 mmHg 83%
    04:00 +10°C° 0 mm 1 mps 719 mmHg 83%
    05:00 +10°C° 0 mm 1 mps 719 mmHg 82%
    06:00 +10°C° 0 mm 1 mps 719 mmHg 81%
    07:00 +10°C° 0 mm 1 mps 719 mmHg 80%
    08:00 +12°C° 0 mm 1 mps 719 mmHg 77%
    09:00 +14°C° 0 mm 1 mps 720 mmHg 75%
    10:00 +15°C° 0 mm 0 mps 720 mmHg 72%
    11:00 +16°C° 0 mm 0 mps 720 mmHg 70%
    12:00 +18°C° 0 mm 0 mps 720 mmHg 67%
    13:00 +19°C° 0 mm 0 mps 720 mmHg 64%
    14:00 +18°C° 0 mm 0 mps 720 mmHg 67%
    15:00 +18°C° 0 mm 0 mps 720 mmHg 71%
    16:00 +17°C° 0 mm 0 mps 719 mmHg 74%
    17:00 +15°C° 0 mm 0 mps 719 mmHg 76%
    18:00 +15°C° 0 mm 1 mps 719 mmHg 78%
    19:00 +13°C° 0 mm 1 mps 720 mmHg 81%
    20:00 +13°C° 0 mm 1 mps 720 mmHg 78%
    21:00 +12°C° 0 mm 1 mps 720 mmHg 76%
    22:00 +12°C° 0 mm 1 mps 720 mmHg 74%
    23:00 +12°C° 0 mm 1 mps 720 mmHg 72%

    26 October, Thursday

    Time Temperature Precipitation Wind Pressure Humidity
    00:00 +12°C° 0 mm 1 mps 720 mmHg 70%
    01:00 +11°C° 0 mm 1 mps 720 mmHg 68%
    02:00 +11°C° 0 mm 1 mps 720 mmHg 67%
    03:00 +11°C° 0 mm 1 mps 720 mmHg 67%
    04:00 +11°C° 0 mm 1 mps 720 mmHg 66%
    05:00 +11°C° 0 mm 1 mps 720 mmHg 65%
    06:00 +11°C° 0 mm 1 mps 720 mmHg 65%
    07:00 +11°C° 0 mm 1 mps 720 mmHg 65%
    08:00 +13°C° 0 mm 1 mps 720 mmHg 65%
    09:00 +15°C° 0 mm 1 mps 720 mmHg 65%
    10:00 +18°C° 0 mm 1 mps 721 mmHg 65%
    11:00 +20°C° 0 mm 1 mps 720 mmHg 62%
    12:00 +21°C° 0 mm 1 mps 720 mmHg 59%
    13:00 +22°C° 0 mm 1 mps 720 mmHg 57%
    14:00 +22°C° 0 mm 1 mps 720 mmHg 60%
    15:00 +21°C° 0 mm 1 mps 720 mmHg 64%
    16:00 +21°C° 0 mm 1 mps 719 mmHg 67%
    17:00 +19°C° 0 mm 1 mps 719 mmHg 69%
    18:00 +16°C° 0 mm 1 mps 719 mmHg 71%
    19:00 +14°C° 0 mm 2 mps 719 mmHg 73%
    20:00 +14°C° 0 mm 2 mps 719 mmHg 71%
    21:00 +13°C° 0 mm 2 mps 719 mmHg 69%
    22:00 +13°C° 0 mm 2 mps 719 mmHg 67%
    23:00 +13°C° 0 mm 2 mps 719 mmHg 67%

    27 October, Friday

    Time Temperature Precipitation Wind Pressure Humidity
    00:00 +12°C° 0 mm 2 mps 719 mmHg 67%
    01:00 +12°C° 0 mm 2 mps 719 mmHg 68%
    02:00 +12°C° 0 mm 2 mps 719 mmHg 69%
    03:00 +12°C° 0 mm 2 mps 718 mmHg 71%
    04:00 +12°C° 0 mm 2 mps 718 mmHg 72%
    05:00 +12°C° 0 mm 2 mps 718 mmHg 74%
    06:00 +12°C° 0 mm 2 mps 718 mmHg 76%
    07:00 +10°C° 0 mm 2 mps 718 mmHg 78%
    08:00 +13°C° 0 mm 2 mps 718 mmHg 75%
    09:00 +15°C° 0 mm 2 mps 718 mmHg 73%
    10:00 +17°C° 0 mm 2 mps 718 mmHg 70%
    11:00 +17°C° 0 mm 3 mps 717 mmHg 69%
    12:00 +18°C° 0 mm 3 mps 717 mmHg 68%
    13:00 +18°C° 0 mm 3 mps 717 mmHg 67%
    14:00 +17°C° 0.4 mm 3 mps 717 mmHg 73%
    15:00 +16°C° 0.4 mm 3 mps 717 mmHg 79%
    16:00 +14°C° 0.4 mm 3 mps 717 mmHg 85%
    17:00 +14°C° 0.6 mm 2 mps 717 mmHg 88%
    18:00 +13°C° 0.6 mm 2 mps 718 mmHg 91%
    19:00 +12°C° 0.6 mm 1 mps 718 mmHg 94%
    20:00 +12°C° 0.2 mm 1 mps 718 mmHg 94%
    21:00 +12°C° 0.2 mm 1 mps 718 mmHg 95%
    22:00 +11°C° 0.2 mm 1 mps 719 mmHg 95%
    23:00 +11°C° 0 mm 1 mps 718 mmHg 95%
    Show more